Tracking 19832 objects as of 25-Aug-2019
HD Live streaming from Space Station
objects crossing your sky now

FENGYUN 1C DEB

Track FENGYUN 1C DEB now!
10-day predictions


NORAD ID: 31844
Int'l Code: 1999-025CJJ
Perigee: 778.0 km
Apogee: 945.7 km
Inclination: 100.3 °
Period: 102.0 minutes
Semi major axis: 7232 km
RCS: 0.0099 m2 (small)
Launch date: May 10, 1999
Source: People's Republic of China (PRC)
Launch site: Taiyaun Space Center, China (TSC)

Note: This is SATELLITE DEBRIS
aabbcc
Your satellite tracking list
Your tracking list is empty




NASA's NSSDC Master Catalog

Two Line Element Set (TLE):
1 31844U 99025CJJ 19236.89270282 +.00000224 +00000-0 +14474-3 0  9995
2 31844 100.2938 208.6471 0115939 102.7922 258.6229 14.11356714628052
Source of the keplerian elements: AFSPC